Regional Weather Roundup
Issued by NWS Charleston, SC

Current Version | Previous Version | Graphics & Text | Print | Product List | Glossary On
Versions: 1 2 3 4 5 6 7 8 9 10 11 12 13 14 15 16 17 18 19 20 21 22 23 24 25 26 27 28 29 30 31 32 33 34 35 36 37 38 39 40 41 42 43 44 45 46 47 48 49 50
000
ASUS42 KCHS 080127
RWRCHS

REGIONAL WEATHER ROUNDUP
NATIONAL WEATHER SERVICE CHARLESTON SC
800 PM EST WED DEC 07 2016

NOTE: "FAIR" INDICATES FEW OR NO CLOUDS BELOW 12,000 FEET WITH NO
SIGNIFICANT WEATHER AND/OR OBSTRUCTIONS TO VISIBILITY.

NOT ALL STATIONS ARE QUALITY CONTROLLED. USE DATA WITH CAUTION...
ESPECIALLY DEWPOINT OBSERVATIONS.

SCZ027-030-031-034>040-042>050-080200-
...SOUTHEAST SOUTH CAROLINA...

CITY           SKY/WX    TMP DP  RH WIND       PRES   REMARKS
N CHARLESTON   PTCLDY    52  49  89 NE3       30.09R
WATERFRONT PRK   N/A     55  53  93 VRB2      30.09R
MOUNT PLEASANT FAIR      52  50  93 CALM      30.10S
JOHNS ISLAND   FAIR      54  52  94 CALM      30.09S
PINOPOLIS        N/A     54  52  94 W7        30.01R
MONCKS CORNER  MOCLDY    50  48  93 CALM      30.09F FOG
SUMMERVILLE    CLOUDY    54  54 100 CALM      30.10S
BEAUFORT MCAS  MOCLDY    53  52  96 CALM      30.09R
BEAUFORT ARPT  FAIR      52  52 100 CALM      30.09R FOG
HILTON HEAD IS CLEAR     52  50  93 CALM      30.10R
WALTERBORO     FOG       52 N/A N/A CALM      30.10S VSB 1/2
ALLENDALE      CLOUDY    55  54  94 CALM      30.08S

...SOUTHERN MIDLANDS AND PEE DEE...

CITY           SKY/WX    TMP DP  RH WIND       PRES   REMARKS
GEORGETOWN     FAIR      45  45 100 CALM      30.10S
KINGSTREE      CLOUDY    52  48  87 SW5       30.09S
ORANGEBURG     CLOUDY    53  51  93 CALM      30.09S
BARNWELL       NOT AVBL
AIKEN          CLOUDY    50  50 100 CALM      30.11S FOG
MANNING        CLOUDY    52  48  87 CALM      30.09S
COLUMBIA       CLOUDY    54  50  86 CALM      30.08S
SUMTER         CLOUDY    54  50  87 SW6       30.06S
FLORENCE       CLOUDY    57  51  80 SW7       30.07S
MYRTLE BEACH   CLEAR     52  41  66 S7        30.11
N MYRTLE BEACH CLEAR     48  48 100 CALM      30.08R

$$

GAZ063-065-086>088-099>101-113>116-118-119-134>141-150-080200-
...SOUTHEAST GEORGIA...

CITY           SKY/WX    TMP DP  RH WIND       PRES   REMARKS
SAVANNAH ARPT  MOCLDY    57  54  89 SE3       30.09R
HUNTER AAF     MOCLDY    55  55 100 CALM      30.06S
FORT STEWART   CLOUDY    58  56  91 CALM      30.06R
STATESBORO     CLOUDY    57  56  97 CALM      30.08S
SYLVANIA       CLOUDY   N/A N/A N/A CALM      30.10R
CLAXTON        FAIR      58  58  99 CALM      30.08S

...CSRA...CENTRAL AND FAR SOUTHEAST GEORGIA...

CITY           SKY/WX    TMP DP  RH WIND       PRES   REMARKS
THOMSON          N/A     47  47 100 CALM      30.12S VSB 3/4
AUGUSTA-BUSH   CLOUDY    54  51  90 CALM      30.07S
AUGUSTA-DANIEL CLOUDY    54  50  86 CALM      30.08S
SWAINSBORO     FAIR      54  52  94 W3        30.10R
VIDALIA        CLEAR     55  54  94 W5        30.10R
EASTMAN        CLOUDY    58  44  60 W3        30.13R
HAZLEHURST     CLOUDY    58  55  89 W3        30.09S
ALMA           PTCLDY    56  53  90 W6        30.09R
WAYCROSS       CLEAR     58  57  97 NW3       30.10R
JESUP          FAIR      59  59 100 NW3       30.09R
BAXLEY         FAIR      55  55 100 CALM      30.09S
BRUNSWICK      FOG       55  55 100 CALM      30.09R VSB 1/4
SAINT SIMONS   CLEAR     61  57  87 SE3       30.07S

$$

SCZ027-028-034-036>038-045-046-048>050-GAZ119-141-080200-
...LAKE AND SUPPLEMENTAL COASTAL OBSERVATIONS...

STATION/POSITION TIME  TEMP    WIND        PRES    WAVE   SWELL
                       AIR SEA DIR/SP/G            HT/PER HT/PER/DIR
                 (UTC) (F)     (DEG/KT/KT) (MB)    (FT/S) (FT/S/D)
WINYAH BAY       0030   50     310/  2     1018.0S
LAKE MURRAY      0020   53     260/  4/  6 1018.3
ACE BASIN NERRS  0045   52        CALM     1018.0S
FORT PULASKI     0100   58 62   CALM  /  1 1018.9
SAPELO ISLAND    0100   56     140/  3     1018.0

$$

ANZ835-935-AMZ111-154-330-350-352-354-370-450-454-472-080200-
...C-MAN AND BUOY OBSERVATIONS...

STATION/POSITION TIME  TEMP    WIND        PRES    WAVE   SWELL
                       AIR SEA DIR/SP/G            HT/PER HT/PER/DIR
                 (UTC) (F)     (DEG/KT/KT) (MB)    (FT/S) (FT/S/D)
BUOY 41004       0050   62 74  300/  6/  8 1018.3R   2/ 7   2/170/ 7
BUOY 41008       0050   63 65  150/  8/  8 1018.2R   2/12   2/ 70/12
FOLLY BEACH CMAN 0000   54     280/  2/  2 1019.3R
CAPERS NEARSHORE 0008   57 61  270/  8/ 10 1018.6R
FRIPP NEARSHORE  0108   60 62   80/  4/  6 1018.6R


STATION/POSITION TIME  TEMP    WIND        PRES    WAVE   SWELL
                       AIR SEA DIR/SP/G            HT/PER HT/PER/DIR
                 (UTC) (F)     (DEG/KT/KT) (MB)    (FT/S) (FT/S/D)
5E ST. MARYS GA  0100      66                N/A     1/13
FRYING PAN BUOY  0050   61      70/  4/  6 1018.5R
BUOY 41025       0050   54 78  360/ 14/ 17 1018.8R   7/10   7/ 60/10
CAPE LOOKOUT NC  0000   52      20/  7/  7 1018.3R
BUOY 41002       0050   70 74  340/  8/ 12 1017.6R   7/ 7   7/290/ 7
BUOY 41010       NOT AVBL
ST AUGUSTINE FL  0100   66 68  150/  4/  4 1019.6R


$$




USA.gov is the U.S. government's official web portal to all federal, state and local government web resources and services.